This demonstration page uses our WeatherBlox Daily Observations layout. Learn more.

Left ArrowRight Arrow

Hourly Observations for September 27, 2016

Temp ( °F °C ) Dew Point ( °F °C ) Humidity (%) Winds ( mph kmh ) Pressure ( in mb ) Visibility ( mi km ) Precip ( " mm )
12:51 am 00:51 Cloudy 61 16.1 48 8.9 63 63 SE 9 15 30.09 1019 10 16.0934 0 0
1:51 am 01:51 Partly Cloudy 59 15 48 8.9 67 67 ESE 9 15 30.09 1019 10 16.0934 0 0
2:51 am 02:51 Mostly Cloudy 58 14.4 48 8.9 70 70 SSE 7 11 30.08 1019 10 16.0934 0 0
3:51 am 03:51 Cloudy 59 15 47 8.3 64 64 SE 8 13 30.09 1019 10 16.0934 0 0
4:51 am 04:51 Mostly Cloudy 59 15 47 8.3 64 64 SE 7 11 30.09 1019 10 16.0934 0 0
5:51 am 05:51 Cloudy 59 15 47 8.3 64 64 SSE 7 11 30.09 1019 10 16.0934 0 0
6:51 am 06:51 Cloudy 60 15.6 48 8.9 65 65 SSE 8 13 30.1 1019 10 16.0934 0 0
7:51 am 07:51 Cloudy 61 16.1 48 8.9 63 63 SE 6 9 30.12 1020 10 16.0934 0 0
8:51 am 08:51 Cloudy 63 17.2 48 8.9 58 58 SSE 6 9 30.12 1020 10 16.0934 0 0
9:51 am 09:51 Cloudy 64 17.8 47 8.3 54 54 SSE 5 7 30.13 1020 10 16.0934 0 0
10:51 am 10:51 Cloudy 66 18.9 46 7.8 49 49 S 3 6 30.11 1020 10 16.0934 0 0
11:51 am 11:51 Cloudy 69 20.6 47 8.3 45 45 S 8 13 30.07 1018 10 16.0934 0 0
12:51 pm 12:51 Mostly Cloudy 71 21.7 46 7.8 41 41 SSW 5 7 30.03 1017 10 16.0934 0 0
1:51 pm 13:51 Sunny 75 23.9 47 8.3 37 37 SSW 7 11 29.98 1015 10 16.0934 0 0
2:51 pm 14:51 Sunny 78 25.6 46 7.8 32 32 SE 8 13 29.95 1014 10 16.0934 0 0
3:51 pm 15:51 Mostly Sunny 79 26.1 48 8.9 34 34 SE 10 17 29.92 1013 10 16.0934 0 0
4:51 pm 16:51 Sunny 78 25.6 50 10 37 37 SSE 13 20 29.91 1013 10 16.0934 0 0
5:51 pm 17:51 Sunny 75 23.9 50 10 41 41 S 5 7 29.91 1013 10 16.0934 0 0
6:51 pm 18:51 Clear with Light Rain 70 21.1 50 10 49 49 Calm 29.92 1013 10 16.0934 0 0.0254
7:51 pm 19:51 Clear 67 19.4 50 10 55 55 Calm 29.95 1014 10 16.0934 0 0.0254
8:51 pm 20:51 Clear 68 20 50 10 53 53 SE 6 9 29.96 1015 10 16.0934 0 0
9:51 pm 21:51 Mostly Clear 71 21.7 50 10 47 47 SE 7 11 29.98 1015 10 16.0934 0 0
10:51 pm 22:51 Mostly Clear with Light Rain 69 20.6 52 11.1 55 55 E 7 11 29.97 1015 10 16.0934 0 0.0254
11:51 pm 23:51 Clear 69 20.6 52 11.1 55 55 E 9 15 29.96 1014 10 16.0934 0 0.0254

Powered by AerisWeather